ARIANE 44LP R/B, 19689

Orbit data source: Space-Track

ARIANE 44LP R/B, 19689 is space debris in HEO originally from a launch on Sun, 11 Dec 1988 UTC launched from the French Guiana (FRGUI). Debris objects in space refer to the collection of defunct objects orbiting the Earth. Examples of debris include non-operational satellites, rocket bodies, and fragments generated from explosions, collisions, or faulty payload assembly.

Loading next visibility...
Identifier
19689, 1988-109C
Orbit
HEO
Country
Flag of FRFR
Related business
Manufacturer
Ae/LesM
Mission
Spacecraft
Bus & Motor
ARIANE H10, Unknown motor
Mass
2,260 kg wet, 2,080 kg dry
Launch date (UTC)
1988-12-11 (37 years ago)
Launch vehicle
Unknown
Launch site
French Guiana (FRGUI)
Object type
Payload
Rocket body
Debris
Shape & HBR
Cyl, 7.0 m
Radar Cross Section
31.447 m², Large (>1 m²)

Expand to show TLE details & history
Last TLE update: 10 hours ago

TLE from 10 hours ago
0 ARIANE 44LP R/B
1 19689U 88109C   25310.78263015  .00000373  00000-0  22937-2 0  9990
2 19689   7.2522 338.4773 7176372 211.2230  72.1703  2.30181858273000
Epoch: 2025-11-06T18:46Z
TLE epoch observation values (Epoch: 2025-11-06T18:46:59.244Z)
Latitude
-0.00004°
Longitude
10.41021°
Altitude
23,938.37 km
Speed
3.138 km/s
True Right ascension
22h 33m 34s
True Declination
0° 00' 00"
Sunlit
Object was in daylight at epoch
Visualization orbit readout
Latitude
Unknown
Longitude
Unknown
Altitude
Unknown
Speed
Unknown
Apparent Right ascension
Unknown
Apparent Declination
Unknown
Sunlit
N/A
Visualization observer readout
Local Sidereal Time
01:02:08
Azimuth
Unknown
Elevation
Unknown
Doppler factor
Unknown
Orbital elements
Apogee altitude
35,249.361 km
Perigee altitude
465.018 km
Semi-major axis
24,235.326 km
Eccentricity
0.71764
Inclination
7.2522°
RAAN
338.4773°
Arg. of periapsis
211.223°
True anomaly
148.6622°
Mean anomaly
72.1703°
Eccentric anomaly
110.64694°
Mean motion
0.57527 °/min
Orbital period
625.8 mins
BSTAR
0.0022937
Loading maneuver chart data...
Computing Atmospheric mass density...
Loading historical data...
Loading historical data...
Loading historical data...
Loading historical data...
Loading historical data...
Loading historical data...
Loading historical data...

Documentation

Showing up to 5 results
|